Location: Staunton
(38.1490°N, 79.0720°W)
Time: 17:46:50
(UTC-04:00)

ISS - Pass Details

Date: 24 March 2017
Orbit: 399 x 409 km, 51.6° (Epoch: 26 March)

Event Time Altitude Azimuth Distance (km) Brightness Sun altitude
Exits shadow 04:51:35 14° 105° (ESE) 1,254 -0.8 -27.7°
Drops below altitude 10° 04:52:08 10° 109° (ESE) 1,466 -0.5 -27.6°
Sets 04:54:17 0° 116° (ESE) 2,324 0.5 -27.2°
